Regional Weather Roundup
Issued by NWS

Home | Current Version | Previous Version | Graphics & Text | Print | Product List | Glossary Off
Versions: 1 2 3 4 5 6 7 8 9 10 11 12 13 14 15 16 17 18 19 20 21 22 23 24 25 26 27 28 29 30 31 32 33 34 35 36 37 38 39 40 41 42 43 44 45 46 47 48 49 50

000
ASUS43 KMPX 282310
RWRMN
WEATHER ROUNDUP FOR MINNESOTA
NATIONAL WEATHER SERVICE TWIN CITIES/CHANHASSEN MN
600 PM CDT TUE JUL 28 2015


NOTE: "FAIR" INDICATES FEW OR NO CLOUDS BELOW 12,000 FEET WITH NO
SIGNIFICANT WEATHER AND/OR OBSTRUCTIONS TO VISIBILITY. N/A MEANS
CURRENT SKY AND/OR WEATHER CONDITIONS ARE NOT AVAILABLE.

MNZ060>063-068>070-290000-
   Twin Cities Metro

CITY           SKY/WX    TMP DP  RH WIND       PRES   REMARKS
TWIN CITIES    CLOUDY    84  72  67 SW8       29.82R
ST PAUL        CLOUDY    82  72  71 SW9       29.82R
CRYSTAL        CLOUDY    84  72  67 S14       29.80
BLAINE         CLOUDY    84  72  65 SW10      29.81
LAKEVILLE      CLOUDY    79  72  78 S6        29.84R
EDEN PRAIRIE   CLOUDY    82  72  71 SW14      29.81R
SOUTH ST PAUL  CLOUDY    83  71  66 S8        29.82R
LAKE ELMO      CLOUDY    81  73  78 SW8       29.83S
$$
MNZ001>005-007-008-013>017-022>024-027-028-290000-
   Northwest Minnesota

CITY           SKY/WX    TMP DP  RH WIND       PRES   REMARKS
BEMIDJI        MOSUNNY   76  56  49 SW17G29   29.73S
HALLOCK        CLOUDY    73  55  53 S18G26    29.56F
ROSEAU         PTSUNNY   75  59  57 SW24G33   29.62R
WARROAD        MOSUNNY   75  61  60 SW22G33   29.62S
THIEF RVR FALL PTSUNNY   73  54  49 SW20G28   29.67S
CROOKSTON      CLOUDY    73  55  53 SW21G26   29.68S
FOSSTON        SUNNY     75  57  53 SW17G30   29.73S
DETROIT LAKES  SUNNY     77  54  44 W17G30    29.78S
MOORHEAD       SUNNY     79  54  41 SW20G29   29.75S
PARK RAPIDS    SUNNY     77  57  50 W21G28    29.77R
MAHNOMEN       MOCLDY    74  56  54 SW17G28   29.74S
$$
MNZ006-009>011-018-025>026-290000-
   North Central Minnesota

CITY           SKY/WX    TMP DP  RH WIND       PRES   REMARKS
BAUDETTE         N/A     76  59  55 SW21G28   29.64R
FLAG ISLAND    MOSUNNY   75  59  57 S23G36    29.58R
INTL FALLS     MOSUNNY   80  65  59 SW14G23   29.64F
WASKISH        SUNNY     77  63  61 SW22G28   29.68S
LONGVILLE      SUNNY     81  57  44 SW15G22   29.75R
GRAND RAPIDS   PTSUNNY   81  66  61 S14G22    29.74F
CRANE LAKE     CLOUDY    79  64  61 S6        29.71F
ORR            CLOUDY    79  64  61 S3        29.68F
COOK           PTSUNNY   81  64  57 S9        29.72S
WALKER         FAIR      76  57  51 SW17G23   29.74R
$$
MNZ012-019>021-037-290000-
   Northeast Minnesota

CITY           SKY/WX    TMP DP  RH WIND       PRES   REMARKS
DULUTH         PTSUNNY   81  67  62 S14       29.78S
ELY            PTSUNNY   81  63  54 SW7       29.75S
HIBBING        PTSUNNY   79  67  66 S10G17    29.74F
EVELETH        SUNNY     82  64  54 S15G21    29.75F
DULUTH HARBOR  MOSUNNY   86  72  62 SW12      29.74F HX  92
TWO HARBORS    MOSUNNY   84  72  65 S9        29.75S
SILVER BAY     SUNNY     82  66  57 S12G17    29.75S
GRAND MARAIS     N/A     70  61  73 VRB3      29.77F
G MARAIS ARPRT SUNNY     73  64  73 SE9       29.82F
$$
MNZ029>031-032-039>041-046>048-054>057-064-290000-
   West Central Minnesota

CITY           SKY/WX    TMP DP  RH WIND       PRES   REMARKS
FERGUS FALLS   MOSUNNY   79  55  44 W20G26    29.79R
WHEATON        SUNNY     75  54  46 SW17G28   29.83S
MORRIS         SUNNY     79  57  47 W23       29.82S
ALEXANDRIA     SUNNY     77  58  51 W18       29.84R
ELBOW LAKE     FAIR      76  57  51 W21G28    29.82S
WADENA         SUNNY     75  57  53 SW21G26   29.79R
GLENWOOD       SUNNY     77  57  50 W16G23    29.85R
APPLETON       SUNNY     81  55  41 W17       29.83S
BENSON         SUNNY     79  55  44 W16       29.84R
ORTONVILLE     SUNNY     79  55  44 W17       29.84S
MADISON        SUNNY     79  57  47 W14G22    29.86R
WILLMAR        FAIR      79  61  53 W13G23    29.87R
$$
MNZ033>034-036-042>043-049>051-058-059-290000-
   Central Minnesota

CITY           SKY/WX    TMP DP  RH WIND       PRES   REMARKS
ST CLOUD       CLOUDY    81  71  71 SW8       29.80R
SAUK CENTRE    FAIR      78  60  53 W13G21    29.83R
PAYNESVILLE    SUNNY     78  58  50 SW15      29.84R
AITKIN         PTSUNNY   81  70  69 S9G17     29.76R
PINE RIVER     SUNNY     79  59  50 SW17G25   29.79R
BRAINERD       PTSUNNY   80  65  59 SW15G24   29.77S
STAPLES        SUNNY     79  59  50 W12G20    29.79R
LONG PRAIRIE   FAIR      79  61  53 SW17      29.82R
LITTLE FALLS   MOSUNNY   81  63  54 SW13G18   29.80R
LITCHFIELD     SUNNY     82  64  54 W8        29.84R
BUFFALO        CLOUDY    80  72  76 CALM      29.82S
MAPLE LAKE     CLOUDY    81  73  78 W9        29.83R
$$
MNZ037-044-045-052-053-290000-
   East Central Minnesota

CITY           SKY/WX    TMP DP  RH WIND       PRES   REMARKS
PRINCETON      CLOUDY    82  73  74 S8        29.80S
MORA           MOSUNNY   77  68  73 S9        29.81S
CAMBRIDGE      PTSUNNY   82  70  65 S7        29.79S
RUSH CITY      PTSUNNY   81  70  70 S6        29.81S
MOOSE LAKE     CLOUDY    79  68  69 S9G17     29.77R
HINCKLEY       CLOUDY    81  72  74 S9        29.80R
CLOQUET        PTSUNNY   81  66  61 S9        29.78S
MCGREGOR       CLOUDY    79  70  73 S9        29.77S
$$
MNZ071>073-080-081-089-090-097-098-290000-
   Southwest Minnesota

CITY           SKY/WX    TMP DP  RH WIND       PRES   REMARKS
MONTEVIDEO     SUNNY     82  63  51 W14       29.88R
GRANITE FALLS  SUNNY     79  61  54 W12       29.88R
CANBY          SUNNY     79  56  44 W14G22    29.89R
MARSHALL       SUNNY     79  57  47 W9        29.91R
REDWOOD FALLS  SUNNY     81  60  48 W12       29.86R
OLIVIA         SUNNY     77  61  57 W12       29.85S
PIPESTONE      SUNNY     75  57  53 W12G18    29.94R
WINDOM         SUNNY     81  63  54 W9        29.90S
WORTHINGTON    SUNNY     79  61  53 W13G20    29.93R
JACKSON        PTSUNNY   79  70  73 W12G17    29.91S
TRACY          SUNNY     79  61  53 W9        29.90R
SLAYTON        SUNNY     77  57  49 W8G18     29.94R
$$
MNZ065>067-074>077-082>085-091>093-290000-
   South Central Minnesota

CITY           SKY/WX    TMP DP  RH WIND       PRES   REMARKS
MANKATO        CLOUDY    79  72  78 W14G20    29.85S
NEW ULM        CLOUDY    79  72  78 W8        29.86R
ST JAMES       PTSUNNY   79  72  78 SW8       29.88S
FAIRMONT       CLOUDY    79  66  65 W10       29.88S
GLENCOE        CLOUDY    81  74  80 SW7       29.83R
FARIBAULT      CLOUDY    79  72  78 S8        29.85F
OWATONNA       PTSUNNY   79  72  78 SW12      29.87S
WASECA         CLOUDY    77  72  83 SW10      29.87F
ALBERT LEA     PTSUNNY   79  72  78 SW7       29.88F
$$
MNZ078>079-086>088-094>096-290000-
   Southeast Minnesota

CITY           SKY/WX    TMP DP  RH WIND       PRES   REMARKS
ROCHESTER      CLOUDY    78  72  81 SW15      29.89S
RED WING       CLOUDY    84  72  65 SW7       29.82S
STANTON        CLOUDY    80  71  72 SW12G17   29.83S
DODGE CENTER   CLOUDY    79  73  83 SW7       29.88F
WINONA         MOSUNNY   86  70  58 SW7       29.86S HX  90
AUSTIN         PTSUNNY   81  72  74 SW10      29.88F
PRESTON        CLOUDY    79  69  73 SW8       29.90F
$$
ABBREVIATIONS USED IN REMARKS
   TC - TEMPERATURES IN CELSIUS
  WCI - WIND CHILL INDEX
   HX - HEAT INDEX
  VSB - VISIBILITY
$$


USA.gov is the U.S. government's official web portal to all federal, state and local government web resources and services.